Regional Weather Roundup
Issued by NWS

Home | Current Version | Previous Version | Text Only | Print | Product List | Glossary On
Versions: 1 2 3 4 5 6 7 8 9 10 11 12 13 14 15 16 17 18 19 20 21 22 23 24 25 26 27 28 29 30 31 32 33 34 35 36 37 38 39 40 41 42 43 44 45 46 47 48 49 50
000
ASUS43 KMPX 010710
RWRMN
WEATHER ROUNDUP FOR MINNESOTA
NATIONAL WEATHER SERVICE TWIN CITIES/CHANHASSEN MN
200 AM CDT WED APR 01 2015


NOTE: "FAIR" INDICATES FEW OR NO CLOUDS BELOW 12,000 FEET WITH NO
SIGNIFICANT WEATHER AND/OR OBSTRUCTIONS TO VISIBILITY. N/A MEANS
CURRENT SKY AND/OR WEATHER CONDITIONS ARE NOT AVAILABLE.

MNZ060>063-068>070-010800-
   Twin Cities Metro

CITY           SKY/WX    TMP DP  RH WIND       PRES   REMARKS
TWIN CITIES    PTCLDY    47  30  51 SE7       29.85S
ST PAUL        CLEAR     46  29  51 SE9       29.87S
CRYSTAL        CLEAR     50  28  42 SE6       29.84S
BLAINE         CLEAR     48  27  43 SE6       29.84F
LAKEVILLE      CLEAR     43  34  70 SE3       29.85F
EDEN PRAIRIE   CLEAR     48  30  49 SE10      29.84S
SOUTH ST PAUL  CLEAR     47  30  50 SE6       29.87R
LAKE ELMO      FAIR      48  28  46 SE6       29.87S
$$
MNZ001>005-007-008-013>017-022>024-027-028-010800-
   Northwest Minnesota

CITY           SKY/WX    TMP DP  RH WIND       PRES   REMARKS
BEMIDJI        PTCLDY    40  27  60 SE9       29.78F
HALLOCK        CLEAR     45  30  57 SE18      29.69F
ROSEAU         MOCLDY    41  30  65 E8        29.76F
WARROAD        CLOUDY    37  30  75 E7        29.78F
THIEF RVR FALL CLEAR     43  28  56 E13       29.73F
CROOKSTON      PTCLDY    43  30  61 SE13      29.71F
FOSSTON        CLEAR     43  30  61 SE8       29.74F
DETROIT LAKES  PTCLDY    45  28  53 SE13      29.73F
MOORHEAD       PTCLDY    48  28  46 SE9       29.67F
PARK RAPIDS    PTCLDY    45  25  45 SE8       29.77F
MAHNOMEN       FAIR      47  28  48 SE16G22   29.71F
$$
MNZ006-009>011-018-025>026-010800-
   North Central Minnesota

CITY           SKY/WX    TMP DP  RH WIND       PRES   REMARKS
BAUDETTE       MOCLDY    37  29  72 SE9       29.79F
FLAG ISLAND    MOCLDY    37  28  70 SE6       29.78F
INTL FALLS     PTCLDY    34  28  79 SE7       29.83F WCI  28
WASKISH        MOCLDY    37  27  65 CALM      29.80F
BIG FORK       PTCLDY    39  27  60 SE7       29.84R
LONGVILLE      PTCLDY    41  27  56 SE6       29.81S
GRAND RAPIDS   PTCLDY    39  27  60 SE9       29.85S
ORR            CLOUDY    36  27  69 CALM      29.83S
COOK           CLOUDY    34  28  80 SE9       29.86F WCI  26
WALKER         FAIR      40  26  58 E3        29.79F
$$
MNZ012-019>021-037-010800-
   Northeast Minnesota

CITY           SKY/WX    TMP DP  RH WIND       PRES   REMARKS
DULUTH         FOG       31  29  92 E14       29.91R VSB 3/4 WCI  21
ELY            CLOUDY    30  28  93 SE8       29.90F WCI  23
HIBBING        CLOUDY    33  28  81 SE9       29.88S WCI  25
EVELETH        CLOUDY    32  32 100 E3        29.90S
DULUTH HARBOR  CLOUDY    34  32  93 NE18      29.95S WCI  23
TWO HARBORS    CLOUDY    34  28  80 E9        29.92F WCI  26
SILVER BAY     CLOUDY    30  30 100 NE6       29.94F FOG     WCI  24
GRAND MARAIS     N/A     31  28  89 SE5       30.00S WCI  26
G MARAIS ARPRT FOG       25  21  86 SE3       29.94R VSB 1/4
$$
MNZ029>031-032-039>041-046>048-054>057-064-010800-
   West Central Minnesota

CITY           SKY/WX    TMP DP  RH WIND       PRES   REMARKS
FERGUS FALLS   PTCLDY    52  25  35 SE18      29.71F
WHEATON        PTCLDY    45  32  61 SE18      29.69F
MORRIS         PTCLDY    46  34  61 SE15      29.71F
ALEXANDRIA     CLEAR     48  29  47 SE16G22   29.76F
ELBOW LAKE     FAIR      50  30  46 SE16G22   29.70F
WADENA         PTCLDY    39  27  60 E8        29.76F
GLENWOOD       CLEAR     43  30  61 E9        29.77F
APPLETON       PTCLDY    52  34  50 SE13      29.71F
BENSON         CLEAR     48  30  49 SE14      29.73F
ORTONVILLE     MOCLDY    48  34  57 SE13      29.69F
MADISON        CLOUDY    50  32  50 SE13      29.70F
WILLMAR        FAIR      48  34  57 SE15      29.78F
$$
MNZ033>034-036-042>043-049>051-058-059-010800-
   Central Minnesota

CITY           SKY/WX    TMP DP  RH WIND       PRES   REMARKS
ST CLOUD       CLEAR     48  25  40 SE8       29.81F
SAUK CENTRE    FAIR      46  31  57 SE10      29.78F
PAYNESVILLE    CLEAR     46  29  52 E10       29.79F
AITKIN         CLEAR     43  28  56 E7        29.83S
PINE RIVER     PTCLDY    43  28  56 SE7       29.85R
BRAINERD       PTCLDY    44  25  47 SE7       29.82S
STAPLES        PTCLDY    45  27  49 SE6       29.79S
LONG PRAIRIE   FAIR      45  30  57 E7        29.78F
LITTLE FALLS   PTCLDY    45  27  49 E8        29.81S
LITCHFIELD     CLEAR     48  34  57 CALM      29.81F
BUFFALO        CLEAR     43  28  56 E6        29.84S
MAPLE LAKE     CLEAR     39  31  72 SE3       29.83F
$$
MNZ037-044-045-052-053-010800-
   East Central Minnesota

CITY           SKY/WX    TMP DP  RH WIND       PRES   REMARKS
PRINCETON      CLEAR     46  27  46 CALM      29.84S
MORA           PTCLDY    39  27  60 E5        29.87S
CAMBRIDGE      PTCLDY    48  30  49 E5        29.83F
RUSH CITY      CLEAR     43  26  49 E5        29.86F
MOOSE LAKE     PTCLDY    32  30  93 CALM      29.88R
HINCKLEY       FAIR      41  30  65 E7        29.87S
CLOQUET        CLOUDY    32  30  93 E7        29.90R WCI  26
MCGREGOR       PTCLDY    36  32  87 E9        29.87R
$$
MNZ071>073-080-081-089-090-097-098-010800-
   Southwest Minnesota

CITY           SKY/WX    TMP DP  RH WIND       PRES   REMARKS
MONTEVIDEO     PTCLDY    48  34  57 S13       29.73F
GRANITE FALLS  PTCLDY    50  34  52 E15       29.75F
CANBY          MOCLDY    46  32  59 SE10      29.72F
MARSHALL       PTCLDY    45  28  53 SE12      29.74F
REDWOOD FALLS  CLEAR     48  34  58 SE15      29.76F
OLIVIA         CLEAR     46  34  61 SE12      29.77F
PIPESTONE      PTCLDY    55  30  38 S15       29.74F
WINDOM         CLEAR     48  30  49 SE8       29.78F
WORTHINGTON    CLEAR     54  28  37 S17       29.78F
JACKSON        CLEAR     52  30  43 S10       29.80F
TRACY          CLEAR     54  32  43 S13G20    29.74F
SLAYTON        CLEAR     48  28  45 S9        29.77F
$$
MNZ065>067-074>077-082>085-091>093-010800-
   South Central Minnesota

CITY           SKY/WX    TMP DP  RH WIND       PRES   REMARKS
MANKATO        CLEAR     46  34  61 SE13      29.83F
NEW ULM        CLEAR     52  34  50 SE13      29.80F
ST JAMES       CLEAR     43  30  61 SE10      29.81F
FAIRMONT       CLEAR     45  30  57 SE7       29.81F
GLENCOE        CLEAR     44  36  73 SE8       29.81F
FARIBAULT      CLEAR     45  34  65 SE3       29.86S
OWATONNA       CLEAR     46  34  61 SE9       29.86S
WASECA         CLEAR     45  36  70 SE9       29.86F
ALBERT LEA     CLEAR     46  36  66 SE7       29.86F
$$
MNZ078>079-086>088-094>096-010800-
   Southeast Minnesota

CITY           SKY/WX    TMP DP  RH WIND       PRES   REMARKS
ROCHESTER      CLEAR     40  32  73 S8        29.89S
RED WING       CLEAR     39  30  70 CALM      29.88S
STANTON        CLEAR     43  32  64 S3        29.85S
DODGE CENTER   PTCLDY    43  36  75 SE8       29.87F
WINONA         CLEAR     37  32  81 CALM      29.91S
AUSTIN         PTCLDY    45  36  70 SE6       29.88S
PRESTON        CLEAR     43  32  64 S6        29.90S
$$
ABBREVIATIONS USED IN REMARKS
   TC - TEMPERATURES IN CELSIUS
  WCI - WIND CHILL INDEX
   HX - HEAT INDEX
  VSB - VISIBILITY
$$



USA.gov is the U.S. government's official web portal to all federal, state and local government web resources and services.